カタログに戻る

NOAA 16

運用中気象SSO
NORAD 26536·PAYLOAD·🇺🇸 United States

打ち上げ Sep 21, 2000 から Vandenberg Space Force Base

Loading…

次のパス (今後24時間)

TLE

最新Source: Space-Track

元期: Sep 14, 2026, 12:59 UTC

1 26536U 00055A   26257.54146055  .00000025  00000-0  34539-4 0  9999
2 26536  98.4645 267.1122 0011361  49.1338 311.0818 14.13936317636354

AllMySatでNOAA 16をリアルタイム追跡

Download on the App Store